Weather reports worldwide

Advertisment
Santiago de Compostela/Labacolla, Spain (8042): temperature & dewpoint: 20.09.2020 13:00:00 - 26.09.2020 13:00:00 (CEST)Santiago de Compostela/Labacolla, Spain (8042): wind speed: 20.09.2020 13:00:00 - 26.09.2020 13:00:00 (CEST)Santiago de Compostela/Labacolla, Spain (8042): wind direction: 20.09.2020 13:00:00 - 26.09.2020 13:00:00 (CEST)Santiago de Compostela/Labacolla, Spain (8042): reduced air pressure: 20.09.2020 13:00:00 - 26.09.2020 13:00:00 (CEST)Santiago de Compostela/Labacolla, Spain (8042): visibility: 20.09.2020 13:00:00 - 26.09.2020 13:00:00 (CEST)
Date & Time tt [°C] td [°C] ff [km/h] ff [kn] dd ppp [hPa] vv [km]
26.09.2020 13:00:00 13,4 12,9 9 5 SSW 1024,5 3,7
26.09.2020 12:00:00 13,1 12,5 8 4 SW 1025,2 3,4
26.09.2020 11:00:00 13,0 11,8 8 4 SW 1025,4 15
26.09.2020 10:00:00 11,7 10,8 9 5 SSW 1025,7 13
26.09.2020 09:00:00 11,1 10,3 4 2 SSE 1026,0 9
26.09.2020 08:00:00 11,8 10,5 2 1 W 1026,3 9
26.09.2020 07:00:00 11,5 10,2 0 0 N 1026,5 18
26.09.2020 06:00:00 11,8 9,9 4 2 SW 1026,9 18
26.09.2020 05:00:00 11,5 10,2 9 5 SW 1027,5 3,0
26.09.2020 04:00:00 10,7 10,2 4 2 S 1027,9 10
26.09.2020 03:00:00 10,7 10,4 8 4 S 1028,4 11
26.09.2020 02:00:00 10,7 10,2 4 2 S 1029,1 15
26.09.2020 01:00:00 11,2 10,6 0 0 N 1029,6 11
26.09.2020 00:00:00 11,9 10,1 4 2 W 1029,5 16
25.09.2020 23:00:00 11,9 9,8 0 0 N 1029,7 25
25.09.2020 22:00:00 12,2 9,6 8 4 N 1029,5 23
25.09.2020 21:00:00 12,8 9,8 11 6 NNW 1029,0 20
25.09.2020 20:00:00 13,3 9,1 15 8 N 1028,3 25
25.09.2020 19:00:00 14,8 8,7 18 10 N 1027,8 28
25.09.2020 18:00:00 15,1 9,9 16 9 N 1027,8 28
25.09.2020 17:00:00 15,7 9,0 15 8 N 1027,5 30
25.09.2020 16:00:00 16,8 8,5 18 10 NNW 1027,4 24
25.09.2020 15:00:00 15,3 8,8 21 11 N 1027,8 25
25.09.2020 14:00:00 15,6 8,5 18 10 N 1027,5 20
25.09.2020 13:00:00 14,8 9,4 21 11 N 1027,5 30
25.09.2020 12:00:00 14,6 10,8 16 9 NNW 1027,2 23
25.09.2020 11:00:00 12,9 10,1 16 9 NNW 1026,9 10
25.09.2020 10:00:00 11,4 9,9 8 4 W 1026,5 24
25.09.2020 09:00:00 10,6 9,2 13 7 NW 1025,9 8
25.09.2020 08:00:00 9,4 8,5 0 0 N 1025,2 6
25.09.2020 07:00:00 9,9 8,8 9 5 WNW 1024,6 17
25.09.2020 06:00:00 10,0 8,6 5 3 W 1024,1 17
25.09.2020 05:00:00 10,1 9,3 2 1 WNW 1023,8 18
25.09.2020 04:00:00 10,4 9,3 5 3 WNW 1023,6 18
25.09.2020 03:00:00 10,8 8,7 8 4 W 1023,4 19
25.09.2020 02:00:00 11,1 8,3 11 6 WNW 1023,0 20
25.09.2020 01:00:00 11,0 8,8 9 5 WNW 1022,7 14
25.09.2020 00:00:00 11,8 9,9 11 6 NW 1022,0 13
24.09.2020 23:00:00 12,4 10,5 18 10 WNW 1021,5 18
24.09.2020 22:00:00 12,7 10,6 15 8 NW 1020,6 14
24.09.2020 21:00:00 13,0 10,0 16 9 NW 1019,7 22
24.09.2020 20:00:00 14,9 11,5 18 10 WNW 1018,8 12
24.09.2020 19:00:00 15,2 12,2 16 9 W 1017,8 21
24.09.2020 18:00:00 15,4 13,4 11 6 W 1017,4 26
24.09.2020 17:00:00 16,0 12,7 18 10 WSW 1017,1 20
24.09.2020 16:00:00 16,1 12,3 22 12 W 1017,0 21
24.09.2020 15:00:00 16,5 13,5 21 11 WSW 1016,6 30
24.09.2020 14:00:00 15,1 13,0 13 7 WSW 1017,2 20
24.09.2020 13:00:00 14,5 12,9 18 10 WSW 1016,9 29
24.09.2020 12:00:00 14,1 13,3 13 7 W 1016,8 16
24.09.2020 11:00:00 14,8 13,0 15 8 SW 1016,0 20
24.09.2020 10:00:00 13,5 12,9 9 5 SW 1015,9 12
24.09.2020 09:00:00 12,4 12,2 9 5 SSW 1015,6 1,0
24.09.2020 08:00:00 12,5 11,1 9 5 SW 1015,5 20
24.09.2020 07:00:00 12,1 11,5 11 6 SW 1015,6 26
24.09.2020 06:00:00 12,7 11,3 8 4 WSW 1015,4 30
24.09.2020 05:00:00 12,9 11,5 8 4 WSW 1015,9 20
24.09.2020 04:00:00 13,2 12,4 5 3 WSW 1016,3 17
24.09.2020 03:00:00 14,0 13,2 5 3 W 1016,1 23
24.09.2020 02:00:00 14,0 13,2 5 3 W 1016,1 20
24.09.2020 01:00:00 13,5 12,9 5 3 W 1016,1 30
24.09.2020 00:00:00 14,0 13,4 8 4 NNW 1015,7 30
23.09.2020 23:00:00 14,8 14,0 8 4 SW 1015,5 3,0
23.09.2020 22:00:00 15,7 13,9 11 6 WSW 1015,0 12
23.09.2020 21:00:00 16,3 13,5 11 6 WSW 1014,4 30
23.09.2020 20:00:00 16,7 13,8 9 5 WSW 1013,7 40
23.09.2020 19:00:00 17,6 14,1 11 6 WSW 1013,5 30
23.09.2020 18:00:00 18,4 14,5 15 8 WSW 1013,1 30
23.09.2020 17:00:00 19,3 14,2 18 10 SW 1012,5 40
23.09.2020 16:00:00 19,1 15,3 11 6 WSW 1012,8 30
23.09.2020 15:00:00 18,3 15,6 15 8 WSW 1013,2 30
23.09.2020 14:00:00 18,8 16,2 13 7 WSW 1012,8 30
23.09.2020 13:00:00 18,5 15,5 11 6 WSW 1012,9 30
23.09.2020 12:00:00 17,3 15,5 9 5 W 1012,8 25
23.09.2020 11:00:00 17,1 16,0 11 6 SSW 1012,3 8
23.09.2020 10:00:00 16,3 15,5 8 4 SSW 1012,1 11
23.09.2020 09:00:00 16,0 15,4 4 2 WSW 1011,8 4,6
23.09.2020 08:00:00 16,0 15,2 5 3 W 1011,2 9
23.09.2020 07:00:00 16,2 15,6 5 3 SW 1011,1 13
23.09.2020 06:00:00 16,3 15,7 8 4 WSW 1011,1 15
23.09.2020 05:00:00 16,7 16,1 11 6 SW 1010,9 12
23.09.2020 04:00:00 16,8 16,2 11 6 SSW 1010,9 21
23.09.2020 03:00:00 17,3 16,7 9 5 SW 1011,0 30
23.09.2020 02:00:00 17,4 16,9 13 7 SW 1010,8 7
23.09.2020 01:00:00 17,1 16,8 13 7 SSW 1011,1 14
23.09.2020 00:00:00 16,6 16,1 15 8 S 1011,3 7
22.09.2020 23:00:00 16,7 16,5 11 6 SSE 1012,1 4,0
22.09.2020 22:00:00 16,8 16,5 9 5 SSE 1012,5 4,0
22.09.2020 21:00:00 17,2 16,6 4 2 SSW 1012,4 -
22.09.2020 20:00:00 17,7 16,4 4 2 SSW 1012,6 20
22.09.2020 19:00:00 17,9 16,2 8 4 W 1012,9 15
22.09.2020 18:00:00 19,2 15,6 11 6 WSW 1013,1 30
22.09.2020 17:00:00 20,9 15,0 11 6 SW 1013,2 30
22.09.2020 16:00:00 21,4 14,4 8 4 SW 1013,8 30
22.09.2020 15:00:00 19,9 13,6 8 4 SW 1014,9 30
22.09.2020 14:00:00 20,1 13,5 11 6 S 1015,2 30
22.09.2020 13:00:00 18,2 14,1 11 6 SSW 1016,1 30
22.09.2020 12:00:00 17,9 15,0 11 6 S 1016,5 24
22.09.2020 11:00:00 16,2 14,5 2 1 SSE 1016,9 1,8
22.09.2020 10:00:00 13,4 13,2 5 3 S 1017,3 10
22.09.2020 09:00:00 12,5 12,3 2 1 SSE 1017,4 9
22.09.2020 08:00:00 11,9 11,6 2 1 WSW 1017,4 0,5
22.09.2020 07:00:00 12,8 12,5 4 2 SSE 1017,2 3,6
22.09.2020 06:00:00 13,1 12,8 4 2 S 1017,2 3,2
22.09.2020 05:00:00 13,8 13,6 4 2 S 1017,3 0,9
22.09.2020 04:00:00 14,6 14,4 4 2 SSE 1017,6 -
22.09.2020 03:00:00 15,0 14,7 4 2 S 1018,1 -
22.09.2020 02:00:00 15,2 14,7 2 1 S 1018,6 10
22.09.2020 01:00:00 15,2 14,6 0 0 N 1019,2 8
22.09.2020 00:00:00 16,0 15,0 4 2 W 1019,3 14
21.09.2020 23:00:00 15,9 15,1 0 0 N 1019,5 20
21.09.2020 22:00:00 16,7 15,2 8 4 WSW 1019,1 18
21.09.2020 21:00:00 17,3 15,6 4 2 WSW 1018,7 24
21.09.2020 20:00:00 19,0 15,7 9 5 SW 1018,2 30
21.09.2020 19:00:00 20,1 15,8 11 6 WSW 1017,9 24
21.09.2020 18:00:00 21,0 15,4 11 6 WSW 1017,7 30
21.09.2020 17:00:00 21,4 14,5 5 3 W 1017,8 40
21.09.2020 16:00:00 21,8 13,7 5 3 NW 1018,0 30
21.09.2020 15:00:00 20,6 14,0 4 2 W 1018,7 30
21.09.2020 14:00:00 21,6 13,5 8 4 SW 1018,9 30
21.09.2020 13:00:00 19,9 15,8 8 4 SSW 1019,4 30
21.09.2020 12:00:00 18,7 15,5 8 4 S 1019,7 19
21.09.2020 11:00:00 17,9 16,0 8 4 S 1019,6 25
21.09.2020 10:00:00 15,4 14,8 4 2 SSE 1019,9 9
21.09.2020 09:00:00 15,2 14,9 8 4 SSW 1019,9 8
21.09.2020 08:00:00 15,4 15,1 5 3 S 1019,3 8
21.09.2020 07:00:00 15,7 15,2 4 2 S 1019,0 8
21.09.2020 06:00:00 15,8 15,3 4 2 SW 1018,8 10
21.09.2020 05:00:00 16,0 15,5 9 5 SW 1018,8 9
21.09.2020 04:00:00 16,2 15,7 9 5 SSW 1019,0 9
21.09.2020 03:00:00 16,2 15,8 5 3 WSW 1019,3 8
21.09.2020 02:00:00 16,4 15,9 5 3 SSW 1019,6 6
21.09.2020 01:00:00 16,3 15,7 8 4 SW 1019,6 11
21.09.2020 00:00:00 16,5 15,9 5 3 SW 1019,8 9
20.09.2020 23:00:00 16,4 15,4 11 6 WSW 1019,9 6
20.09.2020 22:00:00 17,2 16,7 8 4 SW 1019,2 3,3
20.09.2020 21:00:00 17,5 16,4 11 6 SW 1018,6 14
20.09.2020 20:00:00 18,0 16,2 9 5 SW 1018,2 30
20.09.2020 19:00:00 18,9 15,7 13 7 SW 1017,5 30
20.09.2020 18:00:00 20,2 16,9 13 7 SW 1017,1 30
20.09.2020 17:00:00 20,9 17,1 16 9 WSW 1016,5 30
20.09.2020 16:00:00 21,1 17,2 15 8 WSW 1016,3 30
20.09.2020 15:00:00 22,1 16,7 8 4 W 1016,5 40
20.09.2020 14:00:00 21,6 16,2 5 3 WNW 1016,7 40
20.09.2020 13:00:00 21,0 16,4 5 3 NNW 1016,8 30

tt = temperature
td = dewpoint
ff = wind speed
dd = wind direction
ppp = reduced air pressure
vv = visibility

Next stations